Regional Weather Roundup
Issued by NWS

Home | Current Version | Previous Version | Text Only | Print | Product List | Glossary On
Versions: 1 2 3 4 5 6 7 8 9 10 11 12 13 14 15 16 17 18 19 20 21 22 23 24 25 26 27 28 29 30 31 32 33 34 35 36 37 38 39 40 41 42 43 44 45 46 47 48 49 50
000
ASUS46 KSEW 290710
RWRWA

WASHINGTON REGIONAL WEATHER ROUNDUP
NATIONAL WEATHER SERVICE SEATTLE WA
1200 AM PDT TUE JUL 29 2014

NOTE:"FAIR" INDICATES FEW OR NO CLOUDS BELOW 12,000 FEET WITH NO
SIGNIFICANT WEATHER AND/OR OBSTRUCTIONS TO VISIBILITY.

WAZ505-507>509-290800-
SEATTLE, TACOMA, EVERETT, AND VICINITY

CITY           SKY/WX    TMP DP  RH WIND       PRES   REMARKS
EVERETT        CLEAR     65  49  56 NE6       30.11S
BOEING FIELD   CLEAR     72  51  47 CALM      30.08S
RENTON         CLEAR     70  56  61 NW7       30.07S
SEATAC AIRPORT CLEAR     73  51  46 NE14      30.09S
JBLM-MCCHORD   CLEAR     64  52  67 S3        30.08S
PUYALLUP       FAIR      59  57  94 CALM      30.09S
JBLM-FT LEWIS  CLEAR     69  52  55 W3        30.08S
TACOMA NARROWS CLEAR     68  52  56 NW6       30.08S
$$

WAZ001-503-506-510-514-515-290800-
NORTH INTERIOR

CITY           SKY/WX    TMP DP  RH WIND       PRES   REMARKS
BELLINGHAM     CLEAR     64  53  67 S5        30.07S
FRIDAY HARBOR  CLEAR     54  49  83 N3        30.08S
EASTSOUND      CLEAR     63  50  63 S5        30.05S
PORT ANGELES   CLEAR     56  52  86 NW9       30.11S
NAS WHIDBEY    CLEAR     57  51  80 SW5       30.10F
BURLINGTON     CLEAR     57  52  82 CALM      30.11S
$$

WAZ020-022-039-040-504-511-512-290800-
SOUTHWEST INTERIOR

CITY           SKY/WX    TMP DP  RH WIND       PRES   REMARKS
SHELTON        CLEAR     62  56  80 W7        30.08R
OLYMPIA        CLEAR     64  54  69 SE3       30.08R
CHEHALIS       FAIR      64  57  77 CALM      30.09R
KELSO          CLEAR     66  55  68 N3        30.11S
VANCOUVER      CLEAR     71  55  56 NW5       30.03S
SCAPPOOSE, OR  CLEAR     72  52  49 N7        30.03S
PORTLAND, OR   CLEAR     73  57  57 NW3       30.04R
$$

WAZ021-516-517-290800-
WASHINGTON COAST

CITY           SKY/WX    TMP DP  RH WIND       PRES   REMARKS
FORKS          MOCLDY    55  54  96 N3        30.15S
HOQUIAM        MOCLDY    56  54  93 W5        30.13S
ASTORIA, OR    CLEAR     58  54  86 W8        30.13S
$$

WAZ019-023-024-040-518-519-290800-
CASCADE MOUNTAINS AND COLUMBIA GORGE

CITY           SKY/WX    TMP DP  RH WIND       PRES   REMARKS
STAMPEDE PASS  NOT AVBL
TROUTDALE, OR  CLEAR     73  57  57 W3        30.03R
THE DALLES, OR CLEAR     80  58  46 NW15G23   29.95S
$$

WAZ026-027-041>044-520-521-290800-
EAST SLOPES

CITY           SKY/WX    TMP DP  RH WIND       PRES   REMARKS
OMAK           CLEAR     72  41  32 W7        29.99R
WENATCHEE      CLEAR     84  50  30 NW10      30.00R
ELLENSBURG     CLEAR     76  53  44 NW16      30.04S
YAKIMA         CLEAR     83  51  33 NW9       29.99S
$$

WAZ028-034-035-290800-
COLUMBIA BASIN

CITY           SKY/WX    TMP DP  RH WIND       PRES   REMARKS
EPHRATA        CLEAR     85  44  23 N7        29.97R
MOSES LAKE     CLEAR     78  47  33 CALM      29.97R
PASCO          CLEAR     69  63  81 N6        29.92R
HERMISTON, OR  CLEAR     75  42  30 S7        29.94R
$$

WAZ036>038-290800-
NORTHEAST WASHINGTON

CITY           SKY/WX    TMP DP  RH WIND       PRES   REMARKS
SPOKANE GEIGER CLEAR     75  43  31 W9        30.06R
SPOKANE FELTS  CLEAR     71  50  47 NE5       30.04R
FAIRCHILD AFB  CLEAR     73  43  33 W3        30.07R
COEURDALENE,ID CLEAR     66  55  68 S3        30.06S
DEER PARK      CLEAR     61  50  67 N5        30.06R
$$

WAZ029>033-290800-
SOUTHEAST WASHINGTON

CITY           SKY/WX    TMP DP  RH WIND       PRES   REMARKS
PULLMAN        CLEAR     62  49  62 CALM      30.08S
LEWISTON, ID   PTCLDY    82  39  21 W5        29.99R
WALLA WALLA    CLEAR     81  47  30 E9        29.98S
PENDLETON, OR  PTCLDY    76  42  29 SE12      30.00R
$$



USA.gov is the U.S. government's official web portal to all federal, state and local government web resources and services.